Theta_e
319 318 318 317 318 318 317 317 317 317 317 318 318 317 316 314 313 312 312 311 311 311 310 310 310 310 309 309 309 310 310 310 310 310 310 310 308 307 306 305 304 304 303 303 303 303 303 303 303 303 303 303 303 303 303 303 302 302 302 302 301 301 301 300 300 300 300 300 300 299 299 299 298 297 296 296 295 294 293 293 293 294 294 295 295 296
318 317 317 318 318 318 318 318 318 318 318 318 317 316 315 314 313 312 312 311 311 311 310 310 310 309 309 309 309 309 309 309 309 310 309 309 307 306 305 304 304 303 303 303 303 303 303 303 302 302 302 302 302 301 301 301 301 301 300 300 300 299 299 298 298 298 298 298 298 297 297 296 296 295 294 293 292 292 291 291 291 291 291 292 292 292
317 317 317 318 318 318 318 318 318 318 318 317 316 315 314 314 313 312 312 312 311 311 310 310 310 309 309 309 308 308 308 308 308 309 309 308 307 305 304 304 303 303 303 303 303 302 302 302 302 302 301 301 301 301 300 300 300 299 299 298 298 297 297 297 296 296 296 296 295 295 295 294 294 293 292 291 291 291 291 290 290 290 290 290 290 290
316 316 317 318 318 318 318 317 317 317 317 316 316 315 315 314 314 313 312 312 311 311 310 310 310 309 309 308 307 307 307 307 308 308 308 307 306 305 304 303 303 302 302 302 302 302 302 301 301 301 301 301 300 300 299 298 298 297 297 296 296 295 295 295 294 294 294 294 293 293 293 292 292 291 291 290 290 290 290 290 290 290 290 290 290 290
316 316 317 317 317 317 317 317 317 317 316 316 316 316 315 315 314 313 312 312 311 311 310 310 309 309 309 308 307 306 306 306 307 307 307 306 305 304 303 302 302 302 302 302 302 301 301 301 301 300 300 299 298 297 296 296 295 295 294 294 294 293 293 293 293 292 292 292 292 291 291 291 290 290 290 290 290 290 290 290 290 290 290 290 290 290
316 316 315 316 316 317 317 317 317 316 316 316 316 316 315 315 314 313 312 312 311 310 310 310 309 309 308 308 306 305 305 306 306 307 306 305 304 303 302 302 302 302 302 301 301 301 301 300 299 298 297 296 295 294 293 293 292 292 292 292 292 292 291 291 291 291 291 291 290 290 290 290 290 290 290 290 290 290 290 290 290 290 290 290 290 290
315 315 314 315 315 316 316 317 317 316 316 316 316 315 315 314 313 313 312 311 311 310 310 309 309 308 308 307 306 305 305 306 306 306 305 304 303 302 302 302 302 301 301 301 301 300 299 298 296 295 294 293 292 291 291 291 291 291 291 291 291 291 291 290 290 290 290 290 290 290 290 290 290 289 290 290 290 290 290 290 290 290 290 290 290 289
314 314 313 314 314 315 316 316 316 316 315 315 315 314 314 313 312 312 311 311 310 310 309 309 308 308 307 307 306 306 306 306 306 305 303 302 302 302 302 301 301 301 301 300 299 298 296 295 293 292 291 290 290 290 290 290 290 290 290 290 290 290 290 290 290 290 290 290 290 290 290 290 290 290 290 290 290 290 290 289 289 289 289 290 289 289
313 313 312 313 314 315 315 315 315 315 314 314 314 314 314 313 312 311 311 310 310 309 309 309 308 307 307 306 306 306 305 305 304 303 302 301 301 301 301 301 300 300 299 298 297 295 293 291 290 290 289 289 289 289 289 290 290 290 290 290 290 290 290 290 290 290 290 290 290 290 290 290 290 290 290 290 290 290 289 289 289 289 289 289 289 289
312 312 312 312 313 313 314 314 314 313 313 313 313 312 312 312 311 310 310 309 309 309 308 308 307 307 306 306 305 305 304 304 303 302 301 301 301 301 300 300 299 298 297 296 294 292 290 290 289 289 289 289 289 289 289 290 290 290 290 290 290 290 290 290 290 290 290 290 290 290 290 290 290 290 290 290 290 289 289 289 289 289 289 289 289 289
311 311 312 312 312 312 312 313 313 312 312 312 311 311 310 310 310 309 309 309 309 308 308 308 307 307 306 306 305 304 303 303 302 301 301 300 300 300 300 299 298 296 295 293 292 290 289 289 289 289 289 289 289 289 289 290 290 290 290 290 290 290 290 290 290 290 290 290 290 290 290 290 290 290 290 290 289 289 289 289 289 289 289 289 289 289
310 310 311 311 312 311 311 311 311 311 311 311 311 310 310 310 309 309 308 309 308 308 308 307 307 306 305 305 304 303 302 302 301 300 300 300 299 299 298 297 296 294 293 291 290 289 289 289 289 289 289 289 289 289 289 290 290 290 290 290 290 290 290 290 290 290 290 290 290 290 290 290 290 290 290 289 289 289 289 289 289 289 289 289 289 289
310 310 310 310 311 311 311 311 310 310 310 310 310 310 310 310 309 309 309 308 307 307 307 306 306 305 304 304 303 302 302 301 300 300 299 299 298 298 297 295 294 292 291 290 289 288 288 288 289 289 289 289 289 289 289 289 289 289 289 289 289 290 290 290 290 290 290 290 290 290 290 290 289 289 289 289 290 290 290 290 290 290 290 290 290 290
310 310 310 310 310 310 310 310 309 310 310 310 310 310 310 310 309 309 308 307 307 306 305 305 305 304 303 303 302 301 301 300 300 299 299 298 297 296 295 294 292 291 290 289 288 288 288 288 289 289 289 289 289 289 289 289 289 289 289 289 289 290 290 290 290 290 290 290 290 290 290 289 289 289 290 290 290 290 290 290 290 290 290 290 290 290
310 310 310 310 310 310 310 309 309 309 309 309 309 309 309 309 308 308 307 307 306 305 305 304 304 303 302 302 301 301 300 300 299 298 298 297 296 295 294 292 291 290 289 288 288 288 288 289 289 289 289 289 289 289 289 289 289 289 289 289 289 290 290 290 290 290 290 290 290 290 290 290 290 290 290 290 290 290 291 291 291 290 290 290 290 290
310 309 309 309 309 309 309 309 309 309 309 309 309 309 309 308 307 307 306 306 306 305 304 304 303 302 301 301 301 300 300 299 298 297 297 296 295 293 292 291 290 289 289 288 288 288 289 289 289 289 289 289 289 289 289 289 289 289 289 289 290 290 290 290 290 290 290 290 290 290 290 290 290 290 290 291 291 291 291 291 291 291 291 290 290 290
309 309 309 308 308 308 309 309 308 309 309 309 308 308 307 307 306 306 306 305 305 304 304 303 302 302 301 300 300 299 299 298 297 296 296 295 293 292 291 290 290 289 289 289 288 289 289 289 289 289 289 289 289 289 289 289 289 289 289 289 290 290 290 290 290 290 290 290 290 290 290 290 291 291 291 291 291 291 291 291 291 291 291 291 291 291
309 309 308 308 308 308 308 308 308 309 309 308 308 307 306 306 305 305 305 305 304 304 303 303 302 302 301 300 299 298 297 296 295 295 294 293 292 291 290 290 289 289 289 289 288 289 289 289 289 289 289 289 289 289 289 289 289 289 289 290 290 290 290 290 290 290 290 290 290 291 291 291 291 291 291 291 291 291 291 291 291 291 291 291 291 291
308 308 308 308 308 308 308 309 309 309 308 308 307 306 306 305 305 305 305 304 304 303 303 302 301 301 300 299 298 297 296 295 294 293 293 292 291 291 290 290 289 289 289 288 288 288 289 289 289 289 289 289 289 289 289 289 289 289 289 289 290 290 290 290 290 290 290 290 291 291 291 291 291 291 291 291 291 291 291 291 291 291 291 291 290 290
308 308 308 308 308 308 308 309 309 308 308 307 306 306 305 305 304 304 304 304 303 302 301 301 300 299 299 298 297 296 295 294 293 292 292 291 290 290 289 289 289 289 288 288 288 288 288 289 289 289 289 289 289 289 289 289 289 289 289 289 290 290 290 290 290 290 290 290 291 291 291 291 291 291 291 291 291 291 291 291 291 291 291 291 290 290
308 308 308 308 308 308 308 308 308 307 306 306 305 305 305 304 304 304 303 303 302 301 301 300 299 298 298 297 296 295 294 293 292 292 291 290 290 289 289 289 288 288 288 288 288 288 288 289 289 289 289 289 289 289 289 289 289 289 290 290 290 290 290 290 290 290 290 290 290 290 291 291 291 291 291 291 291 291 291 291 291 291 291 291 291 291
308 308 307 307 307 307 307 306 306 306 306 305 305 304 304 304 303 303 302 302 301 300 299 299 298 297 296 296 295 294 293 292 291 291 290 290 289 289 288 288 288 288 288 288 288 288 288 289 289 289 289 289 289 289 289 289 290 290 290 290 290 290 290 290 290 290 290 290 290 290 290 291 290 290 290 290 290 290 291 291 291 291 291 291 291 291
307 307 306 306 306 306 306 305 305 305 305 304 304 303 303 302 302 301 301 300 299 299 298 297 296 296 295 294 293 293 292 291 290 290 289 289 289 289 288 288 288 288 288 288 288 288 288 288 289 289 289 289 289 289 289 290 290 290 290 290 290 290 290 290 290 290 290 290 290 290 290 290 290 290 290 290 290 290 290 291 291 291 291 291 291 290
305 305 305 305 305 305 305 304 304 304 304 303 303 302 301 301 300 299 298 298 297 297 296 296 295 294 294 293 292 291 290 290 289 289 289 289 288 288 288 288 288 288 288 288 288 288 288 288 288 289 289 289 289 289 290 290 290 290 290 290 290 290 290 290 290 290 290 290 290 290 290 290 290 290 290 290 290 290 290 290 290 290 291 290 290 290
304 304 304 304 304 304 304 303 303 302 302 302 301 300 300 299 298 297 296 296 295 295 294 294 293 293 293 292 291 290 290 289 289 288 288 288 288 288 288 288 288 288 288 288 288 288 288 288 288 289 289 289 289 289 290 290 290 290 290 290 290 290 290 290 290 290 290 290 290 290 290 290 290 290 290 290 290 290 290 290 290 290 290 290 290 290
303 303 303 303 303 303 302 302 301 301 300 299 299 298 297 297 296 295 294 294 293 293 293 292 292 292 291 291 290 290 289 289 288 288 288 288 288 288 288 288 288 288 288 288 288 288 288 288 288 289 289 289 289 289 290 290 290 290 290 290 290 290 290 290 290 290 290 290 290 290 290 290 290 290 290 290 290 290 290 290 290 290 290 290 290 290
302 302 302 301 301 301 300 299 299 298 297 297 296 295 295 294 293 293 293 292 292 292 292 291 291 291 290 290 289 289 289 289 288 288 288 288 288 288 288 288 288 288 288 288 288 288 288 288 288 289 289 289 289 289 290 290 290 290 290 290 290 290 290 290 290 290 290 290 290 290 290 290 290 290 290 290 290 290 290 290 290 290 290 290 290 290
300 299 299 299 298 297 297 296 296 295 294 294 293 293 292 292 292 292 292 291 291 291 291 290 290 290 290 289 289 289 288 288 288 288 288 288 288 288 288 288 288 288 288 288 288 288 288 288 288 289 289 289 289 289 290 290 290 290 290 290 290 290 290 290 290 290 290 290 290 290 290 290 290 290 290 290 290 290 290 290 290 290 290 290 290 290
296 296 295 295 294 294 294 293 293 292 292 292 291 291 291 291 291 291 291 290 290 290 290 290 289 289 289 289 288 288 288 288 288 288 288 288 288 288 288 288 288 288 288 288 288 288 288 288 288 288 289 289 289 289 290 290 290 290 290 290 290 290 290 290 290 290 290 290 290 290 290 290 290 290 290 290 290 290 290 290 290 290 290 290 290 290
292 292 292 291 291 291 291 291 291 290 290 290 290 290 290 290 290 290 290 290 290 290 289 289 289 289 288 288 288 288 288 288 288 288 288 288 288 288 288 288 288 288 288 288 288 288 288 288 288 288 289 289 289 289 289 290 290 290 290 290 290 290 290 290 290 290 290 290 290 290 290 290 290 290 290 290 290 290 290 290 290 290 290 290 290 290
290 290 289 289 289 289 289 289 289 289 289 289 289 289 289 289 289 289 289 289 289 289 289 289 289 288 288 288 288 288 288 288 288 288 288 288 288 288 288 288 288 288 288 288 288 288 288 288 288 288 289 289 289 289 289 289 289 290 290 290 290 290 290 290 290 290 290 290 290 290 290 290 290 290 290 290 290 290 290 290 290 290 290 290 290 290
289 289 289 288 288 288 288 288 288 288 288 289 289 288 289 288 289 289 289 289 289 289 289 289 288 288 288 288 288 288 288 288 288 288 288 288 288 288 288 288 288 288 288 288 288 288 288 288 288 289 289 289 289 289 289 289 289 289 289 290 290 290 290 290 290 290 290 290 290 290 290 290 290 290 290 290 290 290 290 290 290 290 290 290 290 289
289 288 288 288 288 288 288 288 288 288 288 288 288 288 288 288 288 288 288 288 288 288 288 288 288 288 288 288 288 288 288 288 288 288 288 288 288 288 288 288 288 288 288 288 288 288 288 288 288 288 288 289 289 289 289 289 289 289 289 290 290 290 290 290 290 290 290 290 290 290 290 290 290 290 290 290 290 290 290 290 290 290 290 289 289 289
288 288 288 288 288 288 288 288 288 288 287 288 288 288 288 288 288 288 288 288 288 288 288 288 288 288 288 288 288 288 288 288 288 288 288 288 288 288 288 288 288 288 288 288 287 287 287 288 288 288 288 288 289 289 289 289 289 289 289 289 289 290 290 290 290 290 290 290 290 290 290 290 290 290 290 290 290 290 290 290 290 290 289 289 289 289
288 288 288 288 288 288 288 288 288 288 287 287 287 288 288 288 288 288 288 288 288 288 288 288 288 288 288 288 288 288 288 288 288 288 288 288 288 288 288 288 288 288 288 287 287 287 287 287 288 288 288 288 288 288 289 289 289 289 289 289 289 289 290 290 290 290 290 290 290 290 290 290 290 290 290 290 290 290 290 290 289 289 289 289 289 289
288 288 288 288 288 288 288 288 288 288 288 287 288 288 288 288 288 288 288 288 288 288 288 288 288 288 288 288 288 288 288 288 288 288 288 288 288 288 288 288 288 288 288 288 287 287 287 287 287 288 288 288 288 288 288 288 289 289 289 289 289 289 289 290 290 290 290 290 290 290 290 290 290 290 290 290 290 290 289 289 289 289 289 289 289 289
288 288 288 288 288 288 288 288 288 288 288 287 287 288 288 288 288 288 288 288 288 288 288 288 288 288 288 288 288 288 288 288 288 288 288 288 288 288 288 288 288 288 287 287 287 287 287 287 287 287 287 288 288 288 288 288 288 289 289 289 289 289 289 290 290 290 290 290 290 290 290 290 290 290 290 290 290 289 289 289 289 289 289 289 289 289
288 288 288 288 288 288 288 288 287 287 287 287 287 287 288 288 288 288 288 288 288 288 288 288 288 288 288 288 288 288 288 288 288 288 288 288 288 288 288 287 287 287 287 287 287 287 287 287 287 287 287 287 287 287 288 288 288 288 289 289 289 289 289 289 290 290 290 290 290 290 290 290 290 290 290 289 289 289 289 289 289 289 289 289 289 289
288 288 288 288 288 288 288 287 287 287 287 287 287 287 287 288 288 288 288 288 288 288 288 288 288 288 288 288 288 288 288 288 288 288 288 288 288 287 287 287 287 287 287 287 287 287 287 287 287 287 287 287 287 287 287 287 288 288 288 289 289 289 289 289 289 289 290 290 290 290 290 290 290 290 290 289 289 289 289 289 289 289 289 289 289 288
287 287 287 287 287 287 287 287 287 287 287 287 287 287 287 287 288 288 288 288 288 288 288 288 288 288 288 288 288 288 288 288 288 288 288 288 288 287 287 287 287 287 287 287 287 287 287 287 287 287 286 286 286 286 286 287 287 287 288 288 289 289 289 289 289 289 289 289 289 289 290 290 290 290 289 289 289 289 289 289 289 289 289 288 288 288
287 287 287 287 287 287 287 287 287 287 287 287 287 287 287 287 287 288 288 288 288 288 288 288 288 288 288 288 288 288 288 288 288 288 288 288 288 288 287 287 287 287 287 287 287 287 287 287 286 286 286 286 286 286 286 286 287 287 287 288 288 288 289 289 289 289 289 289 289 289 289 289 289 289 289 289 289 289 289 289 289 289 288 288 288 288
287 287 286 287 287 287 287 287 287 287 287 287 287 287 287 287 288 288 288 288 288 288 288 288 288 288 288 288 288 288 288 288 288 288 288 288 288 288 287 287 287 287 287 287 287 287 287 287 287 286 286 286 286 287 287 287 287 287 287 287 288 288 288 289 289 289 289 289 289 289 289 289 289 289 289 289 289 289 289 289 289 289 288 288 288 288
286 286 286 286 286 286 286 286 287 287 287 287 287 287 287 288 288 288 288 288 288 288 288 288 288 288 288 288 288 288 288 288 288 288 288 288 288 288 287 287 287 287 287 287 287 287 287 287 287 286 286 286 287 287 287 287 287 287 287 287 287 288 288 288 289 289 289 289 289 289 289 289 289 289 289 289 289 289 289 289 289 288 288 288 288 288
286 286 286 286 286 286 286 286 287 287 287 287 287 287 287 288 288 288 288 288 288 288 288 288 288 288 287 287 287 287 288 288 288 288 288 288 288 287 287 287 287 287 287 287 287 287 286 286 286 286 286 287 287 287 287 287 287 287 287 287 287 287 288 288 288 289 289 289 289 289 289 289 289 289 289 289 289 289 289 289 288 288 288 288 288 288
286 286 286 286 286 286 286 286 286 287 287 287 287 287 288 288 288 288 288 288 288 288 288 288 288 288 288 287 287 287 287 288 288 288 288 288 288 287 287 287 287 287 287 287 287 286 286 286 286 286 286 286 287 287 287 287 287 286 286 286 287 287 287 288 288 288 288 288 288 288 288 289 289 289 289 289 289 288 288 288 288 288 288 288 288 288
286 286 286 286 286 286 286 286 286 287 287 287 287 288 288 288 288 288 288 288 288 288 288 288 288 288 288 288 288 288 288 288 288 288 288 288 288 287 287 287 287 287 287 287 286 286 286 286 286 286 286 286 286 287 287 286 286 286 286 286 286 286 287 287 287 288 288 288 288 288 288 288 289 289 289 289 288 288 288 288 288 288 288 288 288 288
286 286 286 286 286 286 286 286 287 287 287 287 287 288 288 288 288 288 288 288 288 288 288 288 288 288 288 288 288 288 288 288 288 288 288 288 288 288 287 287 287 287 287 287 286 286 286 286 286 286 286 286 286 286 286 286 286 286 285 285 286 286 286 287 287 287 287 288 288 288 288 288 288 289 289 289 288 288 288 288 288 288 288 288 288 288
286 286 286 286 286 286 286 287 287 287 287 287 288 288 288 288 288 288 288 288 288 288 288 288 288 288 288 288 288 288 288 288 288 288 288 288 288 288 288 288 288 287 287 287 287 286 286 286 286 286 286 286 286 286 286 286 285 285 285 285 285 286 286 286 286 287 287 287 288 288 288 288 288 288 288 288 288 288 288 288 288 288 288 288 287 287
286 286 286 286 286 286 287 287 287 287 287 288 288 288 288 288 288 288 288 288 288 288 288 288 288 288 287 287 287 288 288 288 288 288 288 288 288 289 289 289 289 288 288 288 287 287 287 286 286 286 286 286 286 286 286 286 285 285 285 285 285 286 286 286 286 286 287 287 287 288 288 288 288 288 288 288 288 288 288 288 288 287 287 287 287 287
287 287 287 287 287 287 287 287 287 287 288 288 288 288 288 288 288 288 288 288 288 288 288 288 288 288 287 287 287 288 288 288 288 288 288 289 290 290 290 290 290 289 289 288 288 288 287 287 287 287 287 286 286 286 286 286 285 285 285 285 285 286 286 286 286 286 286 287 287 287 287 288 288 288 288 288 288 288 288 288 287 287 287 287 287 287
287 287 287 287 287 287 287 287 287 288 288 288 288 288 288 288 288 288 288 288 288 288 288 288 287 287 287 287 287 288 288 289 289 289 289 290 290 291 290 290 290 290 289 289 289 288 288 288 288 288 288 287 287 287 287 286 286 286 286 286 285 285 286 286 286 286 286 287 287 287 287 287 287 288 288 288 288 288 288 288 287 287 286 286 286 287
Wind_Speed
22 21 20 20 20 20 20 20 20 20 19 19 19 20 19 18 17 17 16 16 17 17 18 18 18 18 18 19 19 19 19 19 19 19 19 17 15 13 11 11 11 11 11 11 12 12 13 13 14 14 15 16 16 17 18 18 19 19 20 20 20 20 19 19 19 19 19 19 19 18 19 18 18 17 16 15 15 15 15 14 14 13 13 12 12 11
21 20 19 19 20 20 21 20 20 19 19 18 18 17 17 16 15 15 15 15 16 17 17 18 18 18 18 18 18 18 19 19 20 20 19 17 14 12 11 11 11 11 11 12 12 13 13 14 14 15 15 16 16 17 18 18 19 19 19 20 20 20 19 19 19 19 20 20 20 19 19 18 17 17 16 15 15 14 14 13 13 12 12 11 11 11
20 19 19 19 20 21 21 20 19 17 17 16 15 15 14 14 14 14 15 15 15 16 17 17 17 17 17 17 18 18 19 20 20 20 19 16 13 11 11 11 11 11 12 12 12 13 14 14 15 16 16 17 17 18 18 19 19 19 20 20 20 20 20 20 19 19 19 19 19 18 17 17 17 16 16 15 14 13 13 12 11 11 10 10 10 10
19 18 18 19 20 20 20 18 16 15 14 13 13 13 12 13 13 14 14 14 15 15 16 16 17 17 17 17 17 18 19 20 21 20 18 15 12 11 10 11 11 12 12 12 13 13 14 15 16 16 17 18 18 18 19 19 19 19 19 19 19 19 19 19 19 19 18 18 18 17 16 16 16 15 15 14 13 12 12 11 10 10 9 9 9 9
19 18 18 18 18 18 17 16 14 13 13 12 12 12 12 12 13 13 13 13 14 15 16 16 17 17 17 17 17 18 19 20 20 20 17 14 11 10 10 11 12 12 12 13 14 14 15 16 16 17 18 18 18 18 18 18 18 18 18 18 18 18 18 17 17 17 17 17 16 16 15 15 15 14 14 13 12 12 11 10 9 9 8 8 8 8
19 18 17 17 16 16 15 15 14 14 13 13 13 12 12 12 12 13 13 13 14 15 16 16 17 17 18 17 17 17 19 20 20 19 16 13 11 10 11 12 12 13 13 14 14 15 16 16 17 17 17 17 17 17 16 16 16 16 16 16 16 16 16 15 15 15 15 15 15 15 14 14 13 13 13 12 11 11 10 9 9 8 8 8 7 7
20 19 17 16 15 14 14 14 14 14 14 13 12 12 12 12 13 13 13 14 15 16 16 17 18 18 18 18 18 18 20 20 19 17 14 12 11 11 12 12 13 14 14 15 15 15 16 16 16 16 16 15 15 14 14 14 14 14 14 14 14 14 14 14 14 14 14 14 14 13 13 13 12 12 12 11 11 10 10 9 9 8 8 7 6 6
19 18 17 16 15 15 15 15 15 14 14 13 12 12 13 13 13 14 14 15 16 16 17 18 18 19 19 19 19 20 20 20 18 15 12 11 11 12 13 13 14 14 15 15 15 15 15 15 14 14 13 13 12 12 13 13 13 12 12 12 12 12 12 12 12 12 12 12 12 12 12 12 11 11 11 10 10 10 9 9 8 8 7 7 6 5
19 18 17 16 15 15 15 16 16 15 14 13 13 13 13 14 14 14 15 16 17 17 18 18 18 19 19 19 19 19 19 18 15 13 12 12 12 13 13 14 14 15 15 15 15 14 13 13 12 12 11 11 11 11 11 11 11 11 11 11 11 11 11 11 11 11 11 11 11 11 11 11 11 11 10 10 9 9 8 8 8 7 7 6 5 5
19 18 17 17 17 17 17 17 17 17 16 14 14 14 14 15 15 15 16 17 18 18 18 18 19 19 19 19 19 18 17 15 14 12 12 13 13 14 14 15 15 15 15 14 14 13 12 11 11 10 10 9 9 9 10 10 10 10 10 10 10 10 10 10 10 10 11 11 11 10 10 10 10 10 9 9 8 8 8 7 7 7 6 6 5 5
19 19 18 18 18 18 19 18 18 18 17 16 15 15 16 16 17 17 17 18 18 18 18 18 19 19 19 19 18 17 15 13 13 13 13 13 14 14 15 15 15 15 14 13 12 11 10 10 9 9 9 8 8 9 9 9 9 9 9 9 9 9 10 10 10 10 10 10 10 9 9 9 9 9 8 8 7 7 7 6 6 6 5 5 5 5
20 20 20 20 20 20 20 19 19 18 18 17 17 17 18 18 18 17 18 19 19 19 18 18 18 18 18 18 17 15 14 13 13 13 13 14 14 14 15 15 15 14 13 12 11 10 10 9 9 8 8 8 8 8 8 8 8 8 8 8 9 9 9 9 9 9 9 9 9 8 8 8 8 8 7 7 6 6 6 5 5 5 5 5 5 5
21 21 21 21 22 22 21 20 20 19 19 19 19 19 19 18 17 17 17 18 18 18 18 17 17 17 16 16 15 14 14 13 13 13 14 14 15 15 15 14 14 13 12 11 10 10 9 9 8 8 8 8 8 7 7 8 8 8 8 8 8 8 8 8 8 8 8 7 7 7 7 7 7 6 6 6 5 5 5 4 4 4 4 4 5 5
22 22 22 22 23 23 23 22 21 21 21 21 20 19 18 17 17 17 17 18 18 17 16 16 16 16 15 15 15 14 14 14 14 14 14 15 15 15 14 14 13 12 11 11 10 9 9 8 8 8 8 7 7 7 7 7 7 7 7 7 7 7 7 7 7 7 6 6 6 6 6 6 6 5 5 5 4 4 4 3 3 3 3 4 4 4
23 23 23 24 24 24 23 22 22 21 21 20 19 18 17 17 17 18 18 18 17 17 16 16 15 15 15 15 15 14 14 14 14 14 14 14 15 14 14 13 12 11 11 10 9 9 9 8 8 8 8 7 7 7 7 7 7 7 7 7 7 7 7 6 6 6 5 5 5 5 5 5 5 5 4 4 4 4 3 3 3 3 3 3 4 4
22 22 22 22 23 22 22 21 20 19 19 18 17 16 17 17 18 18 18 17 17 17 16 16 16 16 15 15 15 14 14 14 15 14 14 14 14 14 13 13 12 11 10 9 9 9 9 8 8 8 8 7 7 7 7 7 7 7 7 7 6 6 6 6 5 5 5 5 5 4 4 4 4 4 4 4 3 3 3 3 3 3 3 3 3 4
20 19 19 18 19 19 18 17 17 17 17 16 16 16 16 17 17 17 17 17 17 17 17 17 17 16 16 15 15 14 14 14 14 14 14 14 14 14 13 12 11 10 9 9 8 8 8 8 8 8 7 7 7 7 6 6 6 6 6 6 6 6 5 5 5 5 4 4 4 4 4 4 4 4 4 4 4 3 3 3 3 3 3 3 3 4
18 17 16 15 15 15 15 15 15 16 15 15 15 15 16 16 17 17 17 17 17 17 17 16 16 15 15 15 15 14 13 13 14 14 14 14 14 13 12 11 10 10 9 8 8 8 8 8 8 7 7 7 7 7 6 6 6 6 6 6 6 5 5 5 5 5 4 4 4 4 4 4 4 4 4 4 4 4 4 4 4 4 3 4 4 4
15 15 14 14 14 13 13 14 15 15 15 15 15 15 16 16 17 17 17 17 17 16 16 15 14 14 13 13 13 12 13 13 14 14 14 14 13 12 11 11 10 9 8 8 8 8 8 8 8 7 7 7 7 7 6 7 7 7 6 6 6 6 5 5 5 5 4 4 4 4 4 4 4 4 4 4 4 4 4 4 4 4 4 4 4 4
14 13 13 12 12 13 14 14 15 14 14 14 14 15 16 16 17 17 17 17 16 16 15 14 13 13 12 12 12 12 13 13 14 13 13 13 12 11 11 10 9 9 8 8 8 8 8 7 7 7 7 7 7 7 7 7 7 7 7 6 6 6 5 5 5 5 5 5 4 4 4 4 4 4 4 4 5 5 5 5 5 5 4 5 5 5
13 13 13 12 13 13 14 14 14 14 14 14 14 15 16 16 17 17 16 16 16 15 15 14 13 13 13 13 13 13 14 13 13 13 12 12 11 11 10 10 9 8 7 7 8 8 8 7 7 7 7 7 7 7 7 7 7 7 7 7 6 6 6 5 5 5 5 5 5 5 5 5 5 5 5 5 5 5 5 5 5 5 5 5 5 5
13 13 13 12 13 13 13 13 13 14 14 15 15 15 16 16 16 16 15 15 15 15 14 14 14 14 14 14 14 14 14 13 13 12 12 11 11 10 10 9 8 8 7 7 8 8 8 7 7 7 7 7 7 7 7 7 7 7 7 7 7 6 6 6 6 5 5 5 5 5 5 5 5 5 5 6 6 6 6 6 6 6 6 6 6 6
12 13 13 13 13 13 13 13 14 14 14 14 14 14 14 14 13 13 13 13 13 13 13 13 14 14 15 15 14 14 13 13 12 12 11 11 10 9 9 9 8 7 7 7 8 8 8 7 7 7 8 8 8 8 8 8 7 7 7 7 6 6 6 6 6 6 5 5 5 5 5 5 6 6 6 6 6 6 6 6 6 6 6 6 6 6
12 12 13 12 12 12 13 13 13 13 13 14 13 13 13 13 13 12 12 12 13 13 14 14 15 15 15 14 14 13 12 11 11 11 11 10 10 9 9 9 8 7 7 8 8 8 8 8 8 8 8 8 8 8 8 8 7 7 7 7 6 6 6 6 6 6 6 5 6 6 6 6 6 6 6 6 6 7 7 7 7 7 7 7 6 6
12 12 12 12 12 12 12 12 12 13 13 13 13 14 14 14 14 15 15 14 14 14 15 15 15 15 15 14 13 12 11 11 10 10 10 10 9 9 9 9 8 8 8 8 8 8 8 8 8 8 8 8 8 8 8 7 7 7 7 7 7 6 6 6 6 6 6 6 6 6 6 6 6 6 6 6 7 7 7 7 7 7 7 7 7 7
12 12 12 12 12 12 12 12 12 12 12 13 13 14 14 15 15 15 15 15 15 15 15 15 15 15 14 13 12 11 11 10 10 10 10 10 9 9 9 9 8 8 8 9 9 8 8 8 8 8 8 8 8 8 7 7 7 7 7 7 7 7 6 6 6 6 6 6 6 6 6 6 6 6 6 7 7 7 7 7 7 7 7 7 7 7
12 12 12 12 12 12 12 12 12 13 13 13 14 14 14 15 15 15 15 15 14 14 14 14 14 13 12 12 11 11 10 10 10 10 10 10 9 9 9 9 9 9 9 9 9 9 9 9 8 8 8 8 8 8 7 7 7 7 7 7 7 7 7 6 6 6 6 6 7 7 7 7 6 7 7 7 7 7 7 7 7 7 7 7 7 7
12 12 12 12 13 13 13 13 13 13 13 14 14 14 14 15 15 15 14 13 13 13 13 13 13 12 12 12 11 11 11 11 10 10 10 10 9 9 9 9 9 9 9 9 9 9 9 9 9 8 8 8 8 8 8 8 7 7 7 7 7 7 7 7 7 7 7 7 7 7 7 7 7 7 7 7 7 7 7 7 7 7 7 7 7 7
12 12 12 13 13 13 13 13 13 13 13 14 14 14 14 14 14 13 12 12 12 12 13 12 12 11 11 11 11 11 11 10 10 10 10 10 9 9 9 9 9 9 9 9 9 9 9 9 9 9 9 8 8 8 8 8 8 8 8 8 7 7 7 7 7 7 7 7 7 7 7 7 7 7 7 7 7 7 7 7 7 6 6 6 7 7
12 12 12 13 13 13 13 13 13 13 13 13 13 13 13 13 12 12 12 12 12 12 12 12 11 11 11 11 11 11 11 10 10 10 10 10 9 9 9 10 9 9 10 10 10 9 9 9 9 9 9 9 9 9 9 9 8 8 8 8 8 8 7 7 7 7 7 7 7 7 7 7 7 7 7 7 7 7 7 7 6 6 6 6 7 7
12 12 12 12 12 12 12 12 12 12 12 12 12 12 12 11 12 12 13 13 13 12 12 12 12 11 11 11 11 11 11 10 10 11 10 10 10 10 10 10 10 10 10 10 10 10 10 9 9 9 9 9 9 9 9 9 9 9 9 9 8 8 8 8 8 8 7 7 8 8 8 8 7 8 7 7 7 7 7 7 7 6 6 6 6 7
11 11 11 12 12 12 12 12 12 12 12 12 12 12 12 12 12 12 12 12 12 12 12 12 12 11 11 11 11 11 10 10 11 11 11 10 10 10 10 10 10 10 10 10 10 10 9 9 9 9 10 10 10 9 9 9 9 9 9 9 9 9 8 8 8 8 8 8 8 8 8 8 8 8 8 8 8 8 8 8 7 7 6 6 6 6
11 11 11 12 12 12 12 12 12 12 12 12 12 12 12 12 12 12 12 12 12 12 12 12 12 12 11 11 11 11 10 10 11 11 11 11 11 11 10 10 10 10 10 10 10 10 10 10 10 10 10 10 10 10 10 10 10 10 10 9 9 9 9 9 9 9 9 9 8 8 8 8 8 8 8 8 9 9 9 8 8 7 7 7 6 6
11 11 11 12 12 12 12 12 12 13 13 13 13 13 12 12 12 12 12 12 12 12 12 12 12 12 12 11 11 11 11 11 11 11 11 11 10 10 10 10 10 10 10 10 10 10 11 10 10 10 10 10 10 10 10 10 10 10 10 10 10 10 10 9 10 9 9 9 9 9 9 9 9 9 9 9 9 9 9 9 9 8 8 7 7 6
11 11 11 12 12 12 13 13 13 13 13 13 13 12 12 12 12 12 12 12 12 12 12 12 12 11 11 12 12 12 12 11 11 11 10 10 10 10 10 10 10 10 10 10 11 11 11 11 10 10 10 10 10 10 10 10 10 10 11 10 10 10 10 10 10 10 10 10 10 10 10 10 9 9 9 10 10 10 10 10 10 9 9 8 8 7
11 12 12 12 12 13 13 13 13 12 12 12 12 12 12 11 11 12 12 12 12 12 12 12 12 11 11 11 11 11 11 11 11 10 10 10 10 10 10 10 10 10 10 11 11 11 11 11 11 10 11 11 11 11 10 11 11 11 11 11 11 11 11 11 11 11 11 11 10 10 10 10 10 10 10 10 10 10 10 10 10 10 10 9 9 9
12 12 12 13 13 12 12 12 12 12 12 11 11 11 11 11 11 12 12 12 12 12 12 12 12 11 11 11 11 10 10 10 10 10 10 10 10 10 10 10 10 10 10 11 11 11 11 11 11 11 11 11 11 11 11 11 11 11 11 11 11 11 11 11 11 11 11 11 11 11 11 11 11 11 11 11 11 11 11 11 11 11 10 10 10 10
13 13 13 13 12 12 12 12 11 11 11 11 11 11 11 11 11 12 12 12 12 12 12 11 11 11 11 11 10 10 10 10 10 10 10 10 10 10 10 10 10 10 10 10 11 11 11 11 11 11 11 11 11 11 11 12 12 12 12 12 11 11 11 11 11 12 12 12 12 12 12 12 12 11 11 12 12 12 12 12 11 11 11 11 11 11
13 13 12 12 12 11 11 11 11 11 11 11 11 11 11 11 12 12 12 11 11 11 11 11 11 11 11 10 10 10 9 9 9 9 10 10 10 10 10 10 10 11 11 11 11 11 11 11 11 11 12 12 12 12 12 12 13 13 13 13 13 12 12 12 12 12 12 13 13 13 13 12 12 12 12 12 12 12 12 12 12 12 12 12 12 12
12 12 11 11 11 10 10 10 10 10 10 10 11 11 11 12 12 12 12 11 11 11 11 11 10 10 10 10 10 9 9 9 9 9 9 10 10 10 10 11 11 11 11 11 11 11 11 11 12 12 12 12 13 13 13 13 14 14 14 15 14 14 13 12 12 12 13 13 14 14 14 13 13 13 13 13 13 13 13 13 13 12 12 12 12 12
11 11 10 10 10 10 10 10 10 10 10 10 11 11 11 12 12 11 11 11 11 11 11 10 10 10 9 9 9 9 9 8 8 9 9 9 10 10 10 10 11 11 11 11 11 11 11 12 12 12 12 13 13 13 14 14 14 15 15 16 16 15 15 14 13 13 13 14 14 14 14 14 14 14 14 14 14 14 14 13 13 13 13 13 13 13
11 11 10 9 9 9 9 10 10 10 10 11 11 11 11 11 11 11 11 11 11 10 10 10 10 9 9 9 8 8 8 8 8 9 9 9 10 10 10 10 10 10 10 11 11 11 11 12 12 12 13 13 14 14 14 14 14 15 15 16 16 16 16 15 14 13 13 14 14 15 15 15 15 15 14 14 14 14 14 14 14 14 14 13 13 13
11 10 10 10 9 9 10 10 10 10 11 11 11 11 11 11 11 11 11 10 10 10 10 9 9 9 8 8 7 7 8 8 8 8 9 9 9 10 10 10 10 10 10 10 11 11 11 12 12 12 13 13 14 14 14 14 14 15 15 16 16 16 17 17 15 14 14 14 15 15 15 16 15 15 15 15 15 15 15 15 15 14 14 14 14 14
11 10 10 10 10 10 10 11 11 11 11 11 11 11 11 11 11 10 10 10 10 9 9 8 8 8 7 7 7 7 7 8 8 8 9 9 9 9 10 10 10 10 10 10 11 11 11 12 12 13 13 14 14 14 14 14 14 14 15 16 16 17 17 17 17 16 15 15 15 15 16 16 16 16 16 16 16 16 16 16 15 15 15 15 14 14
10 10 10 10 10 11 11 11 11 12 11 11 11 11 11 10 10 10 10 9 9 8 8 7 7 7 6 6 7 7 7 8 8 8 9 9 9 9 9 9 10 10 10 11 11 11 12 12 12 13 14 14 14 14 14 14 14 14 15 16 16 17 18 18 17 17 17 16 16 16 16 16 16 16 16 16 16 16 16 16 16 15 15 15 15 15
11 11 11 11 11 12 12 12 12 12 12 11 11 11 10 10 10 10 9 9 8 8 7 7 7 6 6 7 7 7 8 8 8 8 8 8 8 8 8 9 9 9 10 11 11 12 12 13 13 14 14 15 15 14 14 14 14 14 15 16 17 17 18 18 18 18 17 17 17 17 17 16 16 17 17 16 16 16 16 16 16 16 16 16 15 15
12 11 12 12 12 13 13 13 12 12 11 11 11 10 10 10 9 9 8 8 8 7 7 7 7 7 7 7 7 8 8 8 8 8 8 8 8 8 8 8 8 9 10 10 11 12 13 13 13 14 14 14 14 14 14 14 14 14 15 16 17 17 18 18 18 18 18 18 17 17 17 17 17 17 17 17 17 16 16 16 16 16 16 16 16 16
12 12 12 13 13 13 13 12 12 12 11 11 10 10 9 9 9 8 8 8 8 7 7 7 7 7 7 8 8 8 8 8 8 8 7 7 7 7 7 7 8 8 9 10 11 12 13 13 14 14 14 14 14 14 13 13 14 14 15 16 16 17 17 17 17 18 18 18 18 18 18 18 17 17 17 17 17 16 16 16 16 16 16 16 16 16
13 13 13 13 13 13 12 12 12 11 11 11 10 10 9 9 8 8 8 8 8 8 7 7 7 7 7 7 8 8 7 7 7 7 7 6 6 7 7 7 8 8 9 10 11 12 13 13 13 13 13 14 14 14 14 13 13 14 15 15 16 16 16 17 17 18 18 18 19 19 18 18 18 17 17 17 17 16 16 16 16 16 16 17 17 17
14 14 13 13 13 12 12 12 11 11 11 10 10 9 9 9 8 8 8 8 8 8 8 7 7 7 7 7 7 7 7 7 6 6 7 7 7 7 8 8 8 9 10 11 11 12 13 13 13 13 12 13 13 13 14 14 14 14 14 15 15 16 16 16 17 18 18 19 19 19 19 18 18 17 17 17 17 16 16 16 16 16 17 17 17 17
14 14 13 13 13 12 12 11 11 11 10 10 10 9 9 9 9 8 8 8 8 8 8 8 7 7 7 7 7 7 7 7 7 7 7 7 8 8 8 9 9 10 11 11 12 12 13 13 13 12 11 11 12 13 13 14 14 14 14 14 14 15 15 16 17 18 18 19 19 19 18 18 18 17 16 16 16 16 16 16 16 16 17 17 17 18
Wind_Direction
280 285 288 290 290 289 288 287 285 283 279 276 273 271 270 267 264 261 258 256 253 252 252 252 253 254 257 260 265 270 275 278 280 282 285 287 286 281 272 264 257 253 251 249 250 250 252 252 254 254 255 257 258 260 262 263 265 267 269 270 271 272 273 274 274 274 275 276 277 279 283 286 288 289 288 286 283 280 278 277 277 276 276 275 273 270
284 288 289 290 290 290 289 287 284 280 276 272 270 269 267 263 259 255 252 250 249 248 249 250 251 253 256 261 267 271 275 277 279 282 285 287 285 278 268 259 254 251 250 250 251 253 255 256 258 259 260 261 262 262 263 264 265 266 267 268 269 270 270 271 272 272 273 274 276 278 280 282 284 284 284 282 280 278 277 276 277 277 277 276 273 269
285 287 288 288 288 287 286 283 281 277 274 272 270 267 262 255 250 247 245 245 245 246 247 249 251 254 257 261 266 270 273 275 277 281 284 285 282 274 264 256 252 250 250 252 254 257 259 261 263 264 265 265 266 266 266 266 266 266 266 266 267 267 268 268 269 270 271 273 275 276 277 278 279 279 279 279 278 278 277 277 277 277 276 274 271 268
281 283 283 283 283 282 281 278 275 272 270 270 268 263 256 249 244 241 241 241 243 244 246 248 251 254 258 261 265 267 269 271 275 278 281 282 279 270 261 255 252 252 253 256 259 261 264 266 268 269 269 269 269 268 268 267 266 265 265 264 264 264 265 265 266 267 268 270 271 272 273 273 273 274 275 276 276 277 278 277 277 275 273 270 268 266
275 276 277 278 278 278 275 271 266 263 262 262 260 257 251 245 242 240 241 242 243 245 246 249 251 254 258 261 262 262 264 267 271 275 278 279 275 266 258 254 253 254 257 260 263 266 268 270 271 272 272 272 271 270 269 267 266 264 263 262 262 262 262 263 263 264 265 266 266 267 268 268 269 270 271 273 274 276 277 276 275 272 270 267 265 264
270 271 271 272 274 275 272 266 260 256 254 254 254 251 247 243 241 241 242 243 245 246 248 249 251 254 258 260 259 257 258 263 268 272 275 275 271 263 258 256 256 258 261 264 267 270 272 273 274 274 273 273 272 270 268 266 264 262 261 260 260 260 260 260 260 261 261 262 262 263 264 265 266 267 268 269 271 272 273 273 272 270 268 266 264 262
267 268 267 266 267 268 267 263 258 253 251 250 251 251 248 246 244 244 244 245 247 248 249 251 252 255 257 258 256 254 255 261 266 270 272 270 266 261 259 259 260 263 267 270 273 275 276 276 275 274 273 272 270 268 265 263 262 261 260 259 258 258 258 258 258 258 258 259 259 260 261 262 263 264 265 266 267 268 269 270 269 268 267 265 263 260
264 265 263 261 260 261 262 260 257 253 251 251 251 251 251 251 249 248 248 248 248 249 250 251 253 255 257 257 255 254 257 261 265 268 267 264 261 260 261 263 266 269 273 276 278 279 279 278 276 274 272 269 267 264 262 260 259 259 258 258 257 256 256 256 255 255 256 256 257 258 258 259 260 261 262 263 264 265 266 266 266 266 266 265 263 258
260 261 261 258 256 256 257 257 255 254 253 253 253 252 252 251 251 250 250 249 249 250 250 252 254 256 257 257 256 256 258 261 263 262 260 259 259 261 264 267 271 275 278 280 282 281 280 278 276 273 270 266 263 260 258 258 257 257 257 256 256 255 255 255 254 254 253 254 254 255 256 257 258 259 260 261 262 263 263 264 264 264 264 263 261 255
256 255 256 255 254 252 253 255 256 256 255 255 254 253 252 250 249 249 248 248 249 250 251 253 254 255 257 257 256 255 256 256 255 253 253 255 258 262 266 271 275 279 281 283 283 282 280 277 274 271 268 263 260 258 257 256 256 255 255 255 255 254 254 253 252 252 252 252 253 253 254 256 257 258 259 260 261 261 260 261 261 261 262 261 258 252
254 251 249 250 251 252 251 254 256 257 256 254 252 251 250 249 248 247 247 248 250 251 252 253 254 255 255 255 255 254 251 249 247 247 249 253 258 263 269 274 278 280 282 283 282 281 278 276 273 270 266 262 258 256 256 255 255 254 253 253 252 252 251 251 250 250 250 250 251 251 253 254 255 257 258 258 258 257 257 256 256 257 257 255 253 248
256 253 248 247 248 250 251 252 254 255 254 251 248 246 246 247 248 248 248 250 252 253 254 255 255 254 253 252 251 249 246 243 242 244 248 253 259 265 270 275 278 280 281 281 280 279 277 274 271 268 264 261 257 256 255 254 253 252 251 250 249 249 249 248 248 248 248 248 248 249 250 252 253 254 255 255 254 253 251 249 249 250 250 251 249 245
259 257 253 250 249 248 248 248 248 249 249 248 248 248 248 250 251 251 249 251 252 254 254 255 254 252 249 247 245 243 240 239 240 243 248 254 261 267 271 275 277 278 279 279 278 277 274 272 269 266 263 260 257 255 254 253 251 249 248 247 246 245 245 245 245 245 245 245 245 246 247 248 249 250 250 250 249 247 245 242 241 241 244 246 248 246
256 256 254 252 252 251 250 249 248 248 248 250 252 254 256 256 254 251 248 248 249 249 249 249 248 246 243 240 238 237 236 237 240 244 250 256 262 267 271 273 275 275 275 275 275 273 271 268 265 263 261 258 256 253 251 249 247 245 243 242 242 241 241 241 240 240 239 240 240 241 242 243 243 243 244 244 243 241 239 236 233 233 238 244 248 248
256 254 251 250 250 252 253 252 251 251 251 253 254 255 254 251 248 245 244 244 244 243 241 239 239 238 237 235 233 234 235 237 241 246 251 257 263 267 269 270 270 270 270 270 269 268 265 263 261 259 257 255 252 250 247 244 242 240 238 237 237 236 236 235 233 232 232 232 232 233 234 235 236 237 237 237 236 235 235 232 229 229 235 242 248 250
258 256 253 252 251 252 253 253 253 253 253 252 251 248 246 243 241 241 240 240 240 238 234 231 229 230 231 232 233 234 236 239 243 248 253 258 262 265 266 266 266 265 265 264 263 261 260 258 256 254 253 251 248 245 241 238 235 233 232 232 231 230 228 227 225 223 223 223 224 225 227 228 229 231 231 233 233 233 233 233 231 231 234 242 247 252
258 257 256 254 253 252 252 251 250 250 249 247 244 241 239 238 238 237 236 235 235 233 230 228 225 224 225 230 234 236 239 243 247 251 254 256 259 261 262 262 262 261 260 258 257 255 254 253 251 250 248 245 243 238 234 230 227 226 225 225 225 223 222 220 217 216 216 216 217 219 222 223 226 228 230 231 234 234 236 236 234 234 236 243 248 252
257 256 255 254 253 251 248 245 243 242 242 240 237 234 231 231 231 231 231 230 229 228 227 227 227 228 229 229 234 240 244 246 249 252 253 254 256 257 258 258 258 257 255 254 251 250 248 247 246 245 243 239 236 231 226 222 220 219 219 219 218 218 216 215 214 213 212 213 214 217 219 222 225 228 231 233 236 238 240 240 240 240 240 245 248 251
255 253 251 249 248 246 242 239 237 236 235 234 231 227 225 225 225 225 226 225 225 225 225 225 227 230 234 236 240 245 247 248 249 251 251 251 252 253 254 254 254 253 251 248 246 245 243 243 241 240 236 232 228 223 218 215 213 213 213 213 213 214 213 213 212 213 213 215 216 218 221 225 228 232 235 238 241 242 244 244 245 244 243 246 248 251
250 248 245 243 241 239 237 235 233 230 228 226 224 222 219 220 221 221 221 221 220 221 223 224 226 229 233 237 240 243 246 247 248 248 249 249 249 250 250 250 250 248 246 243 240 239 238 237 236 233 229 224 219 215 211 209 208 208 208 209 209 210 212 213 214 215 217 219 221 224 226 230 232 236 239 242 245 247 248 248 248 246 244 244 245 248
245 243 240 237 234 233 233 231 228 223 220 218 217 216 215 216 217 218 218 218 217 217 219 220 224 229 235 236 238 241 244 245 245 246 246 247 247 247 247 247 245 243 239 236 235 234 233 231 229 225 221 217 213 209 207 205 205 205 206 206 208 210 212 214 216 218 220 223 226 230 233 236 239 242 245 247 249 251 252 252 251 249 247 245 244 244
241 239 236 233 230 228 227 224 221 217 215 214 213 213 213 214 215 216 217 217 216 216 218 219 224 231 237 239 240 241 243 243 243 244 244 245 245 245 244 243 241 238 233 230 230 229 228 225 223 220 216 213 209 207 204 204 204 204 205 207 209 212 214 216 218 221 224 227 230 233 237 240 243 245 248 250 253 255 256 257 257 254 252 250 249 248
237 235 233 231 228 225 223 220 217 216 215 213 212 212 214 214 214 215 216 217 217 218 220 224 230 235 238 239 239 240 240 240 240 240 241 242 242 242 240 239 236 232 227 225 225 224 223 220 218 215 213 210 207 206 205 204 204 206 207 209 212 214 216 219 222 224 226 230 233 236 239 241 244 247 249 251 254 256 258 260 261 260 258 257 256 256
231 231 231 229 226 224 222 220 218 217 217 214 212 210 210 210 210 210 212 214 216 217 220 225 229 232 234 235 236 236 235 235 236 236 236 238 239 238 236 234 231 227 221 220 221 220 218 216 214 213 211 209 207 206 206 206 207 208 210 213 215 218 220 222 224 227 229 232 235 238 241 243 245 247 249 251 254 256 259 261 262 264 264 263 262 262
224 225 225 225 224 224 223 222 221 220 220 218 215 213 212 212 212 213 214 214 215 216 219 222 225 227 229 231 232 232 230 230 231 232 233 234 234 233 232 230 227 223 218 219 219 219 216 215 213 211 210 209 208 207 208 209 210 212 214 216 219 221 223 225 227 230 233 236 239 242 244 246 248 250 252 253 255 258 260 262 264 266 267 268 267 267
220 220 221 222 223 224 224 224 224 224 223 222 220 219 219 219 217 216 215 214 214 215 217 219 222 224 227 229 230 230 228 227 228 229 230 231 232 231 230 227 224 221 216 217 218 217 216 215 213 211 211 210 210 210 211 213 215 217 219 221 223 225 227 229 231 234 238 241 244 246 248 249 251 252 254 255 257 259 261 264 266 268 270 271 271 270
219 220 221 222 223 225 225 226 225 225 225 223 223 223 223 222 219 216 213 214 215 217 218 219 221 223 224 226 227 228 227 226 226 227 227 228 230 230 228 225 223 219 216 217 218 218 217 215 214 213 211 212 213 214 215 217 220 222 224 226 228 229 231 233 235 238 241 244 247 249 251 251 252 254 255 256 258 259 261 264 266 268 270 272 272 271
222 223 224 225 226 226 227 227 226 226 224 223 222 222 222 222 219 216 215 217 218 220 220 221 222 222 223 225 226 226 226 226 226 226 225 226 228 229 225 224 221 219 216 216 218 219 218 217 216 215 214 214 216 217 219 222 224 226 228 231 232 234 235 237 239 241 244 246 249 251 252 253 254 255 256 257 258 260 262 263 265 267 269 269 269 269
226 227 228 228 228 227 226 225 225 224 223 221 221 220 220 219 217 216 217 219 220 220 220 221 222 222 223 224 224 224 224 225 225 224 223 225 226 225 222 221 219 217 216 216 217 219 219 219 218 217 217 216 218 220 223 225 228 230 232 235 237 239 240 242 244 246 248 250 251 253 255 256 257 258 259 259 260 262 263 264 266 266 267 266 266 266
228 229 229 229 228 226 224 223 222 221 220 219 219 219 218 215 213 212 214 216 218 219 220 220 220 221 222 222 223 224 224 224 223 222 222 224 223 221 219 219 217 215 214 215 217 219 221 221 220 220 219 219 220 223 225 228 230 233 235 237 240 242 245 247 249 250 252 253 255 256 258 259 261 262 263 264 264 266 266 267 267 267 266 265 265 265
226 226 225 225 224 223 221 219 218 218 217 216 216 215 213 211 209 209 212 214 216 218 219 220 221 221 222 222 224 226 227 223 221 221 221 223 221 218 217 217 216 214 214 216 218 221 224 224 223 223 223 223 224 225 227 230 232 234 236 239 242 245 248 251 253 254 255 256 257 259 261 262 264 266 267 268 269 269 270 270 269 268 266 265 264 264
222 221 219 219 219 218 217 216 215 214 214 212 211 210 208 208 208 209 212 213 216 217 219 220 221 221 221 222 224 226 226 223 220 220 220 220 219 216 216 216 216 215 215 217 219 223 226 226 226 226 226 227 227 228 229 231 233 235 238 240 244 247 250 253 255 257 258 259 259 261 262 264 266 268 269 271 272 273 273 273 272 270 267 265 263 262
221 219 217 216 215 214 212 211 210 209 209 209 208 207 206 207 208 209 211 213 215 216 218 219 220 220 220 220 221 223 222 220 218 218 217 219 218 217 216 217 217 217 218 220 222 224 226 227 227 228 229 230 231 232 232 233 235 236 239 241 244 248 251 254 257 259 260 260 261 262 264 265 267 268 270 271 272 273 274 274 274 273 270 267 265 263
221 219 217 215 213 210 209 207 206 206 206 206 206 206 206 207 208 210 211 213 214 215 217 218 219 219 219 219 219 220 219 217 216 216 216 217 217 217 217 218 220 221 223 224 227 228 230 230 230 230 231 233 234 235 236 237 238 240 241 244 246 249 252 254 256 258 260 261 261 263 264 265 266 268 269 270 271 272 273 274 275 274 273 271 269 267
220 218 216 214 211 209 207 205 204 203 203 204 205 206 207 208 209 210 212 213 214 215 216 216 217 217 218 219 219 220 219 217 216 215 216 216 216 217 218 220 223 225 227 229 231 233 234 235 235 235 236 237 238 238 239 241 242 244 246 247 250 252 253 255 257 258 259 261 262 262 263 265 266 267 268 269 269 270 272 273 274 275 275 274 274 273
217 215 213 211 209 207 205 203 202 202 203 204 205 206 207 208 209 210 211 213 214 214 215 215 215 215 215 216 218 220 219 218 218 218 217 218 218 219 220 223 226 228 230 233 235 237 239 241 242 242 242 243 243 243 244 245 247 249 250 251 253 254 256 257 258 259 260 260 261 262 263 264 265 266 266 267 268 269 270 271 273 275 276 276 276 276
216 213 211 209 207 205 203 202 202 202 203 204 205 206 207 208 210 210 211 212 213 213 213 214 214 214 214 214 215 217 217 218 219 220 220 221 222 223 225 227 229 232 234 236 239 242 244 245 247 248 249 250 250 250 250 251 252 253 254 254 255 256 258 259 260 260 260 261 261 261 262 262 263 264 265 266 267 268 269 270 272 273 275 276 277 278
213 210 208 206 204 203 202 201 201 202 202 203 204 205 207 209 210 211 211 212 212 212 213 213 213 213 214 214 214 214 215 216 218 220 221 223 225 226 228 231 233 235 237 239 242 244 246 248 250 252 254 256 257 257 257 257 257 258 258 258 257 257 257 259 260 261 261 262 262 262 261 261 262 262 263 264 265 266 266 268 270 271 273 275 277 277
211 208 205 203 202 202 201 202 202 202 202 202 203 204 206 208 210 211 211 211 211 212 212 213 213 213 214 214 215 215 216 217 219 221 223 226 228 229 231 233 235 236 238 241 242 245 247 249 252 254 257 258 259 259 259 259 260 260 261 261 259 257 256 256 258 260 261 262 263 263 262 262 262 261 261 262 263 264 264 266 267 269 271 273 275 277
211 208 205 203 203 203 203 203 203 203 202 202 202 204 206 207 208 209 210 210 210 211 211 212 213 214 214 214 215 216 218 219 221 224 227 229 231 232 234 236 238 239 240 242 244 246 248 250 252 253 254 255 256 256 256 257 258 260 261 262 262 261 258 256 256 258 260 262 264 264 264 264 263 263 262 262 262 262 263 264 266 267 269 271 273 276
212 210 207 206 205 205 205 205 205 204 203 202 202 203 204 205 206 206 206 207 208 209 211 211 212 213 214 215 216 216 218 221 224 226 229 232 234 235 237 239 241 242 243 245 247 249 251 253 254 255 255 255 255 255 254 255 256 258 259 260 262 263 263 260 258 258 260 262 264 265 266 266 266 265 264 264 264 263 264 264 265 266 268 269 270 272
212 211 209 208 208 208 207 207 207 205 203 202 202 202 202 202 203 202 202 202 203 204 205 206 208 209 211 213 215 217 219 222 225 229 231 234 236 238 240 241 243 245 246 248 249 251 253 255 256 257 258 258 257 257 256 256 257 258 260 261 263 265 266 266 264 263 263 263 265 266 266 267 266 266 265 265 264 264 265 265 266 266 267 268 269 270
211 210 210 209 209 209 209 208 207 205 203 203 202 202 201 201 201 201 200 200 200 201 202 204 205 206 208 210 214 217 221 224 227 230 233 235 237 239 241 243 244 246 248 250 251 252 253 255 257 258 259 260 260 260 260 259 259 260 261 262 263 264 266 268 269 267 265 264 264 264 264 265 265 265 265 264 264 265 265 265 266 266 267 268 268 269
212 211 210 209 209 208 208 208 207 205 204 203 203 202 201 201 201 200 201 201 201 201 202 203 205 207 209 212 215 218 222 226 230 232 234 236 238 239 241 243 245 247 249 251 253 254 254 254 255 256 257 258 259 260 261 260 260 259 260 261 261 262 263 266 268 267 266 264 262 262 262 262 263 263 264 264 264 264 265 266 266 267 268 268 268 269
212 212 210 209 208 208 209 208 207 205 204 203 203 202 201 200 199 200 201 202 202 202 202 203 206 209 212 214 218 220 223 226 229 232 234 236 238 240 242 244 246 248 250 252 254 255 255 254 253 254 254 256 257 258 259 260 259 258 257 257 258 259 261 263 264 264 264 264 263 262 262 262 262 263 264 264 264 265 266 267 268 268 269 269 269 270
211 211 210 209 208 208 208 208 207 205 204 203 203 202 201 200 199 200 201 202 203 203 202 203 206 210 213 216 218 221 223 225 227 230 233 236 238 241 244 247 249 251 252 253 255 256 257 257 256 254 255 256 256 257 258 258 257 256 254 253 253 255 257 259 261 262 263 264 264 264 264 264 264 265 265 266 266 267 268 269 270 270 271 271 271 271
210 210 209 208 208 208 207 207 206 204 203 203 203 202 201 201 201 201 202 202 204 204 204 204 207 211 214 217 219 222 223 225 228 232 235 238 240 243 247 250 254 256 258 258 259 259 260 261 261 261 261 261 261 260 259 257 257 255 253 252 252 253 254 257 260 262 264 265 266 266 267 267 267 267 268 268 268 269 270 270 271 272 272 272 272 272
209 209 208 207 207 207 206 205 204 203 203 203 203 203 202 202 202 203 203 204 205 206 207 208 210 213 216 219 223 226 229 232 235 239 242 245 248 251 254 257 260 263 265 267 267 267 267 267 268 268 269 269 269 268 265 261 259 256 255 254 253 254 255 257 259 262 264 265 266 267 267 268 269 270 271 271 271 271 271 272 272 272 272 272 272 272
208 207 207 206 205 204 204 203 203 202 203 203 204 204 203 203 204 205 206 206 208 210 211 212 213 216 219 223 227 231 235 238 243 247 253 258 261 264 266 268 270 272 273 275 276 276 276 276 275 275 276 276 276 275 272 268 263 259 257 256 256 256 257 257 258 260 262 263 265 266 267 268 269 270 271 272 273 273 273 273 273 273 272 272 271 272
208 207 206 204 203 203 202 202 202 203 203 204 204 204 204 205 206 207 208 209 211 213 214 215 216 218 221 224 228 231 235 239 244 250 256 262 267 270 274 277 279 280 280 281 281 281 281 281 280 280 280 279 278 278 275 272 267 263 260 258 258 258 257 257 256 257 259 261 263 265 267 268 269 269 270 271 272 273 273 273 273 273 273 272 272 271
208 207 205 204 203 203 202 202 203 204 204 205 205 205 206 207 208 210 212 213 215 216 217 218 218 218 219 222 225 228 230 235 242 248 253 259 266 271 277 281 283 284 284 284 284 285 285 284 284 283 281 279 277 275 274 273 270 267 264 261 259 257 257 256 255 256 257 259 262 264 266 267 268 268 269 269 270 271 272 272 272 272 271 271 271 271